[[{"header":{"parameterUnit":"m.s-1","parameterCategory":2,"la1":30.2991,"la2":30.254,"lo1":-89.0895,"lo2":-89.0444,"dy":0.0017,"dx":0.0017,"nx":28,"ny":28,"refTime":"2025-04-17T03:00:00:Z","depth":"0","parameterNumber":2,"parameterNumberName":"U-component_of_CURRENTS"},"data":[0,0,0,0,0,0,0,0,0,0,0,0,0,0,0,0,0,0,0,0,0,0,0,0,0,0,0,0,0,0,0,0,0,0,0,0,0,0,0,0,0,0,0,0,0,0,0,0,0,0,0,0,0,0,0,0,0,0,0.3316,0.3316,0,0.339,0.339,0.3391,0.3413,0.3413,0.3413,0.3413,0.3429,0.3429,0.343,0,0,0,0,0,0,0,0,0,0,0,0,0,0.323,0.3231,0.3315,0.3317,0.3318,0.339,0.3391,0.3391,0.3413,0.3413,0.3413,0.3412,0.3428,0.3429,0.343,0,0,0,0,0,0,0,0,0,0,0,0,0,0.328,0.3232,0.3315,0.3339,0.3342,0.339,0.3391,0.3392,0.3413,0.3413,0.3413,0.3412,0.3428,0.3429,0.343,0.3442,0,0,0.3433,0.3433,0,0,0,0,0,0,0,0,0.3277,0.3283,0.3334,0.3337,0.3341,0.3394,0.3367,0.3406,0.3413,0.3384,0.3413,0.3412,0.3413,0.3415,0.3428,0.3443,0.3443,0.3433,0.3434,0.3434,0.3434,0,0,0,0,0,0,0,0.3274,0.328,0.3343,0.3335,0.3339,0.3359,0.3365,0.3375,0.3397,0.3386,0.3389,0.34,0.3414,0.3427,0.3428,0.3444,0.3433,0.3434,0.3434,0.3435,0.3527,0.3528,0,0,0,0,0,0,0.3267,0.3277,0.3341,0.3345,0.331,0.336,0.3367,0.3375,0.3398,0.3402,0.3401,0.3401,0.3426,0.3427,0.3429,0.3478,0.3434,0.3435,0.3435,0.3525,0.3527,0.3529,0,0,0,0,0,0,0.3265,0.3272,0.3338,0.3314,0.3324,0.3362,0.3371,0.3377,0.3398,0.341,0.3412,0.3416,0.3425,0.3428,0.3452,0.3478,0.3435,0.3436,0.3522,0.3525,0.3528,0.3555,0,0,0,0,0,0,0.3262,0.3271,0.327,0.3314,0.3326,0.3369,0.3372,0.3379,0.3406,0.3408,0.3424,0.3425,0.3425,0.3451,0.3453,0.3478,0.3437,0.352,0.3524,0.3527,0.3552,0.3558,0.3564,0,0,0,0,0,0.3259,0.3255,0.327,0.3278,0.3325,0.337,0.3378,0.3402,0.3407,0.3419,0.3436,0.3425,0.3475,0.3453,0.3455,0.3481,0.3518,0.3523,0.3527,0.3549,0.3557,0.3564,0,0,0,0,0,0,0.321,0.3259,0.3275,0.3285,0.3329,0.3374,0.3384,0.3408,0.3432,0.3429,0.3441,0.3443,0.3477,0.3479,0.3455,0.3522,0.3498,0.3503,0.3515,0.3522,0.3528,0.3544,0.3438,0,0,0,0,0,0.3202,0.3216,0.3271,0.3278,0.33,0.3346,0.3365,0.3388,0.3418,0.3429,0.3444,0.3466,0.3497,0.3508,0.3527,0.3556,0.362,0.358,0.3586,0.3591,0.3608,0.3728,0.3747,0.3543,0.3543,0.3543,0,0,0.3183,0.3213,0.3219,0.327,0.3301,0.334,0.3356,0.3388,0.3423,0.3425,0.3462,0.3483,0.3511,0.3549,0.3565,0.3552,0.3689,0.3596,0.36,0.3615,0.3734,0.3754,0.3772,0.3546,0.3545,0.3545,0,0,0.3164,0.3183,0.3198,0.3238,0.3293,0.3327,0.3341,0.3395,0.3421,0.3464,0.3483,0.3527,0.3556,0.3594,0.3616,0.3671,0.3717,0.3672,0.3714,0.3829,0.3847,0.3864,0.3997,0.4025,0.3675,0.3675,0.3675,0,0.3143,0.3172,0.3208,0.3243,0.3276,0.3325,0.3359,0.3398,0.3453,0.349,0.3476,0.358,0.3587,0.3672,0.3687,0.3685,0.3766,0.3677,0.3839,0.3856,0.3872,0.4004,0.4035,0.3677,0.3677,0.3677,0.3677,0,0.3146,0.3176,0.3189,0.3252,0.3289,0.3324,0.3389,0.3429,0.3464,0.3515,0.3601,0.3634,0.3703,0.3712,0.371,0.3831,0.3858,0.3832,0.3817,0.3895,0.4029,0.4061,0.368,0.3679,0.3679,0.3678,0,0,0.3093,0.3176,0.3182,0.3231,0.33,0.3343,0.3395,0.3482,0.3561,0.3599,0.3714,0.3748,0.3783,0.3813,0.3832,0.392,0.4097,0.3923,0.3928,0.4053,0.4386,0.4327,0.4356,0.4101,0.4106,0.411,0.4443,0,0.3095,0.3162,0.3195,0.3269,0.3322,0.3381,0.3445,0.3526,0.3603,0.3725,0.3782,0.3888,0.3819,0.3882,0.3951,0.4084,0.4178,0.4012,0.4296,0.4305,0.424,0.4389,0.4214,0.4488,0.4474,0.4479,0.4483,0,0.31,0.3151,0.3217,0.3329,0.3356,0.3402,0.354,0.3608,0.3764,0.3834,0.393,0.3999,0.4141,0.4073,0.4314,0.4217,0.4297,0.4378,0.4393,0.4348,0.4303,0.4405,0.4545,0.4375,0.4531,0.4528,0.4524,0,0.3098,0.3174,0.3233,0.3267,0.3389,0.3433,0.35,0.364,0.3761,0.3928,0.4062,0.4184,0.4328,0.4425,0.4537,0.4465,0.4819,0.4745,0.4768,0.4767,0.4679,0.466,0.4682,0.4913,0.4912,0.4911,0.491,0,0.3131,0.3193,0.3238,0.3293,0.3422,0.345,0.3616,0.3713,0.3876,0.4048,0.4127,0.4304,0.4428,0.4614,0.4653,0.4829,0.4914,0.4829,0.4861,0.4684,0.4662,0.4554,0.4475,0.4924,0.4921,0.4918,0.4916,0,0.3229,0.3216,0.3332,0.3414,0.345,0.3562,0.3738,0.385,0.3978,0.4216,0.4286,0.4501,0.4722,0.4831,0.5057,0.5024,0.5026,0.5178,0.4965,0.4962,0.4773,0.4703,0.4695,0.4555,0.5299,0.53,0.53,0,0.3342,0.3379,0.3474,0.3531,0.3592,0.3724,0.382,0.3932,0.4042,0.4326,0.4444,0.4719,0.4878,0.519,0.5198,0.5309,0.5094,0.5193,0.499,0.4784,0.4733,0.454,0.4406,0.4919,0.4917,0.4915,0.4913,0,0.3565,0.3549,0.3617,0.3722,0.3802,0.3921,0.4027,0.412,0.4234,0.44,0.4587,0.4732,0.5026,0.5058,0.5197,0.5218,0.4925,0.5152,0.5005,0.4505,0.4237,0.4107,0.4693,0.4894,0.4896,0.4897,0.4898,0.4899,0.3731,0.3799,0.3792,0.39,0.3977,0.4002,0.4046,0.4109,0.4226,0.4333,0.4564,0.4681,0.4849,0.5015,0.5011,0.4854,0.4833,0.469,0.466,0.4511,0.4235,0.478,0.4945,0.4947,0.4949,0.4951,0.4952,0,0.3852,0.3844,0.3959,0.3979,0.4018,0.4043,0.4091,0.4042,0.4055,0.4216,0.4322,0.4432,0.4498,0.457,0.4528,0.4368,0.4164,0.4237,0.3911,0.3829,0.4398,0.423,0.4164,0.4164,0.4164,0.4164,0.4164,0.4164,0.389,0.3918,0.3919,0.3939,0.3957,0.3889,0.3856,0.3803,0.384,0.3808,0.3824,0.393,0.4126,0.422,0.4053,0.396,0.3621,0.3503,0.3469,0.3838,0.3875,0.3909,0.3729,0.3559,0.3558,0.2726,0.272,0.2715]},{"header":{"parameterUnit":"m.s-1","parameterCategory":2,"la1":30.2991,"la2":30.254,"lo1":-89.0895,"lo2":-89.0444,"dy":0.0017,"dx":0.0017,"nx":28,"ny":28,"refTime":"2025-04-17T03:00:00:Z","depth":"0","parameterNumber":3,"parameterNumberName":"V-component_of_CURRENTS"},"data":[0,0,0,0,0,0,0,0,0,0,0,0,0,0,0,0,0,0,0,0,0,0,0,0,0,0,0,0,0,0,0,0,0,0,0,0,0,0,0,0,0,0,0,0,0,0,0,0,0,0,0,0,0,0,0,0,0,0,0.0091,0.0091,0,0.0011,0.0009,0.0008,-0.0057,-0.0058,-0.0058,-0.0059,-0.0158,-0.016,-0.0162,0,0,0,0,0,0,0,0,0,0,0,0,0,0.0147,0.0146,0.0092,0.0091,0.009,0.0011,0.0009,0.0008,-0.0057,-0.0058,-0.0058,-0.0059,-0.0157,-0.016,-0.0163,0,0,0,0,0,0,0,0,0,0,0,0,0,0.0099,0.0146,0.0092,0.0049,0.0044,0.0011,0.0009,0.0008,-0.0057,-0.0058,-0.0059,-0.0059,-0.0157,-0.016,-0.0163,-0.0166,0,0,-0.0173,-0.0174,0,0,0,0,0,0,0,0,0.0102,0.0097,0.0056,0.0052,0.0047,-0.0013,-0.0007,-0.0051,-0.0057,-0.002,-0.0059,-0.006,-0.011,-0.0117,-0.0132,-0.0171,-0.0175,-0.0173,-0.0175,-0.0176,-0.0177,0,0,0,0,0,0,0,0.0105,0.01,0.0058,0.0055,0.0049,0.0019,0.0012,-0.0016,-0.0061,-0.0023,-0.0028,-0.0034,-0.0113,-0.0129,-0.0135,-0.0177,-0.0173,-0.0176,-0.0178,-0.0179,-0.0212,-0.0211,0,0,0,0,0,0,0.0121,0.0103,0.0061,0.0056,0.0074,0.0019,0.001,0.0006,-0.006,-0.0071,-0.0034,-0.0037,-0.0123,-0.0131,-0.0139,-0.0122,-0.0176,-0.0179,-0.0181,-0.0213,-0.0211,-0.021,0,0,0,0,0,0,0.0123,0.0118,0.0064,0.0078,0.007,0.0019,0.0014,0.0005,-0.0008,-0.0068,-0.0079,-0.0036,-0.0124,-0.0134,-0.0153,-0.0128,-0.0181,-0.0184,-0.0214,-0.0212,-0.0211,-0.0106,0,0,0,0,0,0,0.0125,0.012,0.0124,0.008,0.0069,0.0064,0.0015,0.0004,-0.001,-0.0016,-0.0073,-0.0083,-0.0125,-0.0147,-0.0156,-0.0133,-0.0186,-0.0215,-0.0213,-0.0211,-0.011,-0.0101,-0.0092,0,0,0,0,0,0.0127,0.0146,0.0125,0.012,0.0077,0.0065,0.0058,0.0017,-0.0009,-0.0,-0.0044,-0.0081,-0.0141,-0.0149,-0.0159,-0.0137,-0.0216,-0.0214,-0.0211,-0.0115,-0.0103,-0.0093,0,0,0,0,0,0,0.0175,0.014,0.0116,0.0122,0.0102,0.0055,0.0057,0.0028,-0.0001,-0.0009,-0.007,-0.0082,-0.0091,-0.0126,-0.0134,-0.014,-0.0184,-0.0183,-0.0107,-0.0096,-0.0087,-0.0066,-0.0189,0,0,0,0,0,0.0188,0.0188,0.0152,0.0157,0.0151,0.0105,0.0094,0.0068,0.0035,0.0021,-0.0019,-0.0061,-0.0089,-0.0101,-0.0134,-0.0134,-0.0154,-0.0127,-0.0117,-0.0109,-0.0099,-0.0109,-0.0099,-0.0202,-0.0202,-0.0202,0,0,0.0205,0.0188,0.0186,0.0167,0.0144,0.0151,0.0097,0.0091,0.0096,0.0016,0.0013,-0.0032,-0.0083,-0.0087,-0.0093,-0.0112,-0.0086,-0.0106,-0.0099,-0.0093,-0.0105,-0.0095,-0.0086,-0.0201,-0.0201,-0.0201,0,0,0.025,0.0229,0.0246,0.0237,0.0216,0.0191,0.0196,0.0158,0.0142,0.0133,0.0076,0.0052,0.0008,-0.002,-0.0041,0.0001,-0.0041,-0.0012,0.0055,0.0046,0.0055,0.0062,0.0072,0.0079,-0.0003,-0.0002,-0.0002,0,0.0274,0.0287,0.0252,0.027,0.0269,0.0217,0.024,0.0223,0.0184,0.0181,0.0148,0.0093,0.0043,0.0044,0.005,0.0023,0.0014,0.0019,0.006,0.0066,0.0072,0.0079,0.0086,0.0003,0.0002,0.0002,0.0001,0,0.033,0.0341,0.0355,0.0356,0.0354,0.0367,0.034,0.0337,0.0306,0.0284,0.0276,0.0213,0.0182,0.0162,0.0113,0.0132,0.0113,0.007,0.0036,0.0089,0.0093,0.0098,0.0011,0.0009,0.0007,0.0006,0,0,0.0374,0.0391,0.0394,0.0416,0.04,0.0412,0.0422,0.0423,0.0456,0.0402,0.0443,0.0364,0.0328,0.0302,0.0245,0.0229,0.0255,0.0171,0.0168,0.0189,0.0253,0.0222,0.0224,0.0218,0.0219,0.022,0.0248,0,0.0425,0.0487,0.0471,0.0527,0.0557,0.052,0.0548,0.0542,0.0531,0.0564,0.0495,0.0515,0.0385,0.0396,0.0348,0.0295,0.0269,0.0252,0.0191,0.019,0.0162,0.0229,0.021,0.0232,0.0253,0.0254,0.0254,0,0.048,0.0516,0.0583,0.063,0.064,0.0669,0.0709,0.0731,0.0745,0.0745,0.0724,0.0684,0.0658,0.0552,0.0456,0.0453,0.0353,0.0294,0.0292,0.0229,0.0168,0.0177,0.0239,-0.0011,0.0261,0.026,0.026,0,0.0544,0.0593,0.0654,0.0667,0.0711,0.074,0.0767,0.0788,0.086,0.0886,0.0965,0.0871,0.0913,0.0748,0.059,0.0535,0.0502,0.0413,0.0287,0.0285,0.0239,0.0231,0.0057,0.0335,0.0335,0.0335,0.0335,0,0.0612,0.0669,0.0697,0.0741,0.0853,0.0829,0.0957,0.0973,0.1048,0.1186,0.1081,0.1195,0.0967,0.0911,0.0687,0.0527,0.057,0.0321,0.0294,0.0277,0.0271,0.0024,-0.011,0.0336,0.0335,0.0335,0.0335,0,0.0715,0.0708,0.0813,0.0869,0.0899,0.0993,0.1128,0.1228,0.1268,0.1457,0.1493,0.149,0.142,0.1169,0.0967,0.0719,0.0391,0.0443,0.0447,0.0418,0.0031,-0.0096,-0.0261,-0.0351,0.0313,0.0312,0.0312,0,0.0795,0.0851,0.0952,0.1032,0.1077,0.1201,0.1306,0.1355,0.1478,0.1657,0.1778,0.1782,0.1818,0.1503,0.1066,0.0692,0.0432,0.0411,0.0274,0.0027,-0.0134,-0.0223,-0.0293,0.0267,0.0266,0.0266,0.0265,0,0.0978,0.1001,0.1081,0.1231,0.1347,0.1497,0.1638,0.1766,0.1856,0.2022,0.2221,0.2273,0.1999,0.1645,0.1121,0.0818,0.0235,0.0385,0.0127,-0.0181,-0.0284,-0.0387,0.024,0.026,0.026,0.0261,0.0261,0.0261,0.1137,0.122,0.1293,0.1434,0.1574,0.1737,0.1877,0.2036,0.2246,0.2483,0.253,0.2654,0.2107,0.1404,0.0997,0.0179,0.0206,-0.0088,-0.0212,-0.0273,-0.0398,0.0225,0.0204,0.0205,0.0205,0.0205,0.0205,0,0.1289,0.1335,0.149,0.1625,0.178,0.182,0.2055,0.2195,0.2442,0.2702,0.287,0.2645,0.1977,0.1257,0.0177,-0.0334,-0.0528,-0.0624,-0.078,-0.0817,-0.0266,-0.0312,-0.0442,-0.0442,-0.0442,-0.0442,-0.0441,-0.0441,0.1363,0.1466,0.1499,0.1729,0.1849,0.2048,0.2175,0.2417,0.263,0.2906,0.2981,0.3005,0.2334,0.0543,-0.0659,-0.0919,-0.1267,-0.1337,-0.1479,-0.1163,-0.1124,-0.1086,-0.1164,-0.147,-0.1471,-0.1976,-0.1982,-0.1986]}],[{"header":{"parameterUnit":"m.s-1","parameterCategory":2,"la1":30.2991,"la2":30.254,"lo1":-89.0895,"lo2":-89.0444,"dy":0.0017,"dx":0.0017,"nx":28,"ny":28,"refTime":"2025-04-17T03:00:00:Z","depth":"2","parameterNumber":2,"parameterNumberName":"U-component_of_CURRENTS"},"data":[0,0,0,0,0,0,0,0,0,0,0,0,0,0,0,0,0,0,0,0,0,0,0,0,0,0,0,0,0,0,0,0,0,0,0,0,0,0,0,0,0,0,0,0,0,0,0,0,0,0,0,0,0,0,0,0,0,0,0.2647,0.2647,0,0.2695,0.2695,0.2696,0.2729,0.2729,0.2729,0.273,0.2779,0.278,0.2781,0,0,0,0,0,0,0,0,0,0,0,0,0,0.2586,0.2587,0.2647,0.2647,0.2648,0.2695,0.2695,0.2696,0.2729,0.2729,0.273,0.273,0.2779,0.278,0.2781,0,0,0,0,0,0,0,0,0,0,0,0,0,0.262,0.2587,0.2647,0.2671,0.2674,0.2695,0.2695,0.2696,0.2729,0.2729,0.273,0.273,0.2778,0.278,0.2781,0.2779,0,0,0.2785,0.2786,0,0,0,0,0,0,0,0,0.2618,0.2622,0.2667,0.267,0.2673,0.2708,0.2692,0.2724,0.2728,0.2706,0.273,0.2731,0.2756,0.2759,0.2765,0.2781,0.2783,0.2786,0.2786,0.2787,0.2787,0,0,0,0,0,0,0,0.2615,0.262,0.2664,0.2668,0.2671,0.2681,0.2686,0.2698,0.2726,0.2708,0.2711,0.2719,0.2757,0.2763,0.2766,0.2784,0.2785,0.2787,0.2788,0.2788,0.2889,0.2891,0,0,0,0,0,0,0.2611,0.2617,0.2663,0.2666,0.2648,0.2682,0.2687,0.2695,0.2726,0.2732,0.2718,0.272,0.2761,0.2764,0.2768,0.2832,0.2787,0.2788,0.2789,0.2887,0.2889,0.2891,0,0,0,0,0,0,0.261,0.2615,0.2661,0.2644,0.2651,0.2682,0.269,0.2695,0.2719,0.2734,0.2739,0.2739,0.2761,0.2766,0.2805,0.2832,0.2789,0.279,0.2885,0.2888,0.289,0.2919,0,0,0,0,0,0,0.2608,0.2614,0.2619,0.2644,0.2652,0.2685,0.269,0.2696,0.2723,0.2726,0.2753,0.2757,0.2762,0.2803,0.2806,0.2833,0.2791,0.2883,0.2886,0.289,0.2915,0.2922,0.2928,0,0,0,0,0,0.2606,0.2608,0.2619,0.2625,0.2657,0.2685,0.2691,0.2714,0.2723,0.2737,0.2764,0.2757,0.2827,0.2805,0.2809,0.2837,0.2881,0.2885,0.2889,0.2913,0.2921,0.2928,0,0,0,0,0,0,0.2577,0.2613,0.2625,0.2637,0.2665,0.2692,0.2706,0.2722,0.2753,0.276,0.2774,0.2781,0.2832,0.2831,0.2806,0.2879,0.2856,0.2861,0.2872,0.288,0.2886,0.2905,0.2793,0,0,0,0,0,0.2575,0.2596,0.2625,0.2639,0.2653,0.2683,0.2698,0.2716,0.2745,0.2759,0.2781,0.281,0.2849,0.2861,0.2891,0.2917,0.2957,0.2942,0.2948,0.2953,0.2974,0.3061,0.3077,0.2905,0.2905,0.2905,0,0,0.2567,0.2592,0.2602,0.2637,0.2661,0.2683,0.2694,0.2724,0.2753,0.2759,0.2807,0.2836,0.2865,0.2909,0.293,0.291,0.3024,0.2958,0.2962,0.2981,0.3067,0.3083,0.3098,0.2908,0.2907,0.2907,0,0,0.2564,0.2587,0.2603,0.2629,0.267,0.2692,0.2704,0.2741,0.2771,0.2814,0.284,0.2887,0.2925,0.2959,0.2979,0.3036,0.3062,0.3045,0.3079,0.3162,0.3177,0.3191,0.3263,0.3283,0.3036,0.3036,0.3036,0,0.2553,0.258,0.2611,0.2634,0.2662,0.2698,0.2722,0.2754,0.2802,0.2845,0.2835,0.2942,0.2953,0.3031,0.3052,0.305,0.3103,0.3042,0.317,0.3185,0.3198,0.3269,0.3291,0.3038,0.3038,0.3038,0.3038,0,0.2553,0.2586,0.2601,0.2647,0.2679,0.2709,0.2757,0.2795,0.2834,0.2881,0.2974,0.2999,0.3066,0.3075,0.3078,0.3182,0.3192,0.3175,0.3149,0.3217,0.3288,0.331,0.3041,0.304,0.304,0.3039,0,0,0.2506,0.2586,0.2591,0.2626,0.2693,0.2716,0.2779,0.2856,0.2928,0.2968,0.3076,0.3117,0.3151,0.3178,0.3191,0.3252,0.3379,0.3255,0.3259,0.3323,0.3577,0.3488,0.3504,0.3391,0.3395,0.3398,0.3587,0,0.2503,0.2554,0.2593,0.2649,0.2689,0.2747,0.2829,0.2906,0.2974,0.3087,0.3141,0.3247,0.3185,0.3241,0.3286,0.339,0.344,0.333,0.3506,0.3511,0.342,0.3527,0.3222,0.3357,0.3609,0.3613,0.3615,0,0.2493,0.2538,0.2597,0.2703,0.2726,0.2769,0.2902,0.2975,0.3136,0.3202,0.3286,0.3353,0.3467,0.3404,0.3563,0.3504,0.3539,0.3587,0.3595,0.3521,0.3464,0.3331,0.3388,0.3652,0.3649,0.3646,0.3644,0,0.2477,0.254,0.2595,0.2623,0.2745,0.2796,0.2873,0.3025,0.3128,0.3296,0.3396,0.3511,0.3616,0.3679,0.3733,0.3685,0.3915,0.3856,0.3799,0.3793,0.3572,0.3539,0.3958,0.3957,0.3957,0.3956,0.3956,0,0.2484,0.2521,0.2592,0.2632,0.2747,0.2812,0.2959,0.306,0.3229,0.338,0.3463,0.3584,0.3697,0.3816,0.3827,0.3892,0.3981,0.3844,0.385,0.3571,0.3538,0.3815,0.3795,0.3963,0.3962,0.396,0.3959,0,0.2507,0.2529,0.2607,0.2713,0.2762,0.2852,0.3029,0.3119,0.3278,0.3472,0.3543,0.3718,0.3861,0.3931,0.408,0.4022,0.4088,0.4067,0.3729,0.369,0.3889,0.387,0.4062,0.4061,0.406,0.4059,0.4058,0,0.2559,0.259,0.2696,0.2714,0.2767,0.2894,0.3,0.3168,0.3243,0.353,0.3608,0.3824,0.3901,0.4073,0.4041,0.4064,0.4103,0.3794,0.3625,0.3921,0.3908,0.389,0.3872,0.3351,0.3345,0.334,0.3336,0,0.2641,0.2649,0.2682,0.2732,0.2797,0.2903,0.3025,0.3106,0.3302,0.3431,0.3573,0.3675,0.3862,0.3755,0.3813,0.377,0.3767,0.3687,0.4131,0.3357,0.3262,0.3245,0.3249,0.3288,0.3293,0.3297,0.3299,0.3301,0.268,0.2679,0.2649,0.2697,0.2744,0.2784,0.2824,0.2925,0.3029,0.3148,0.3365,0.3411,0.3517,0.3424,0.3352,0.3308,0.3537,0.3377,0.3389,0.3408,0.3277,0.3183,0.3171,0.3175,0.3179,0.3182,0.3184,0,0.2622,0.2569,0.2596,0.255,0.2507,0.2638,0.272,0.2663,0.268,0.2919,0.2977,0.2784,0.2782,0.2899,0.2762,0.2782,0.2707,0.2678,0.255,0.2601,0.2646,0.2469,0.2154,0.215,0.2147,0.2144,0,0,0.2536,0.241,0.2394,0.2256,0.2284,0.2232,0.2257,0.222,0.2285,0.227,0.2351,0.2603,0.2802,0.2419,0.2394,0.2258,0.2397,0.2171,0.3003,0.2903,0.2942,0.3067,0.2857,0,0,0,0,0]},{"header":{"parameterUnit":"m.s-1","parameterCategory":2,"la1":30.2991,"la2":30.254,"lo1":-89.0895,"lo2":-89.0444,"dy":0.0017,"dx":0.0017,"nx":28,"ny":28,"refTime":"2025-04-17T03:00:00:Z","depth":"2","parameterNumber":3,"parameterNumberName":"V-component_of_CURRENTS"},"data":[0,0,0,0,0,0,0,0,0,0,0,0,0,0,0,0,0,0,0,0,0,0,0,0,0,0,0,0,0,0,0,0,0,0,0,0,0,0,0,0,0,0,0,0,0,0,0,0,0,0,0,0,0,0,0,0,0,0,-0.0061,-0.0062,0,-0.0134,-0.0135,-0.0136,-0.0188,-0.0189,-0.0189,-0.0189,-0.0286,-0.0289,-0.0291,0,0,0,0,0,0,0,0,0,0,0,0,0,0.0002,0.0001,-0.0061,-0.0062,-0.0063,-0.0134,-0.0135,-0.0136,-0.0188,-0.0189,-0.0189,-0.0189,-0.0286,-0.0288,-0.0291,0,0,0,0,0,0,0,0,0,0,0,0,0,-0.0045,0.0001,-0.0061,-0.0097,-0.01,-0.0134,-0.0135,-0.0137,-0.0188,-0.0189,-0.0189,-0.019,-0.0285,-0.0288,-0.0291,-0.0302,0,0,-0.0302,-0.0303,0,0,0,0,0,0,0,0,-0.0042,-0.0047,-0.0091,-0.0094,-0.0099,-0.0152,-0.0149,-0.0193,-0.0188,-0.0156,-0.0189,-0.019,-0.0243,-0.0249,-0.0263,-0.0307,-0.0311,-0.0302,-0.0304,-0.0306,-0.0307,0,0,0,0,0,0,0,-0.0039,-0.0044,-0.0091,-0.0091,-0.0096,-0.012,-0.0127,-0.0157,-0.0197,-0.0159,-0.0162,-0.0169,-0.0245,-0.026,-0.0266,-0.0313,-0.0302,-0.0305,-0.0307,-0.0308,-0.0367,-0.0366,0,0,0,0,0,0,-0.0026,-0.0041,-0.0089,-0.0093,-0.007,-0.012,-0.0128,-0.0135,-0.0196,-0.0205,-0.0168,-0.0171,-0.0254,-0.0262,-0.027,-0.0269,-0.0306,-0.0309,-0.0311,-0.0367,-0.0367,-0.0366,0,0,0,0,0,0,-0.0024,-0.0029,-0.0086,-0.0068,-0.0077,-0.012,-0.0128,-0.0136,-0.015,-0.0203,-0.0213,-0.0173,-0.0254,-0.0265,-0.0288,-0.0274,-0.031,-0.0313,-0.0368,-0.0367,-0.0366,-0.0279,0,0,0,0,0,0,-0.0022,-0.0028,-0.0026,-0.0067,-0.0077,-0.0095,-0.0128,-0.0137,-0.0152,-0.0157,-0.021,-0.022,-0.0256,-0.0283,-0.0291,-0.0279,-0.0316,-0.0368,-0.0367,-0.0366,-0.0282,-0.0275,-0.0269,0,0,0,0,0,-0.0019,-0.0011,-0.0026,-0.0031,-0.0074,-0.0095,-0.0102,-0.0136,-0.0152,-0.0151,-0.0186,-0.0218,-0.0283,-0.0285,-0.0295,-0.0284,-0.0369,-0.0368,-0.0367,-0.0285,-0.0276,-0.0269,0,0,0,0,0,0,0.0016,-0.0016,-0.0033,-0.0036,-0.0059,-0.0103,-0.0104,-0.0129,-0.0156,-0.0159,-0.0212,-0.0223,-0.0239,-0.0274,-0.0274,-0.0298,-0.0331,-0.0332,-0.0266,-0.0258,-0.0252,-0.0225,-0.0319,0,0,0,0,0,0.0026,0.0024,-0.0012,-0.0014,-0.0021,-0.0061,-0.0074,-0.0095,-0.0126,-0.0139,-0.0176,-0.0214,-0.0243,-0.0259,-0.0291,-0.0303,-0.0335,-0.0303,-0.0297,-0.0291,-0.0277,-0.031,-0.0304,-0.0362,-0.0362,-0.0362,0,0,0.0039,0.0022,0.0019,-0.0006,-0.0026,-0.0024,-0.007,-0.0079,-0.0077,-0.0145,-0.015,-0.0192,-0.0241,-0.0253,-0.0264,-0.028,-0.0293,-0.0289,-0.0284,-0.0273,-0.0308,-0.0302,-0.0297,-0.0362,-0.0362,-0.0362,0,0,0.0071,0.005,0.0062,0.0051,0.0029,0.0007,0.0008,-0.0028,-0.0043,-0.0057,-0.0102,-0.013,-0.0177,-0.0206,-0.0228,-0.0204,-0.0255,-0.0218,-0.0163,-0.0195,-0.0191,-0.0187,-0.0223,-0.0223,-0.0216,-0.0215,-0.0215,0,0.0088,0.0097,0.0063,0.0076,0.0076,0.0027,0.0046,0.0026,-0.0013,-0.0015,-0.0045,-0.0105,-0.0152,-0.0162,-0.0158,-0.0187,-0.0216,-0.0188,-0.0185,-0.0182,-0.018,-0.0218,-0.0219,-0.0211,-0.0211,-0.0212,-0.0212,0,0.0129,0.0139,0.0149,0.015,0.0146,0.0154,0.0126,0.0121,0.0095,0.0071,0.0054,-0.0011,-0.0045,-0.0069,-0.0108,-0.0111,-0.0141,-0.0171,-0.0201,-0.0168,-0.0211,-0.0214,-0.0205,-0.0206,-0.0208,-0.0209,0,0,0.0156,0.0175,0.0177,0.02,0.0187,0.0192,0.0203,0.02,0.022,0.0168,0.0188,0.0118,0.0079,0.0051,-0.0006,-0.0038,-0.0057,-0.0091,-0.0095,-0.0118,-0.013,-0.0169,-0.0177,-0.0086,-0.0086,-0.0086,-0.0167,0,0.0198,0.0249,0.024,0.029,0.0316,0.0289,0.0312,0.0304,0.0283,0.029,0.0223,0.0219,0.0126,0.0119,0.0067,-0.0011,-0.006,-0.0033,-0.0165,-0.0169,-0.0201,-0.018,-0.0153,-0.0224,-0.017,-0.0171,-0.0171,0,0.0237,0.027,0.0329,0.0377,0.0387,0.0407,0.0438,0.0453,0.0446,0.0435,0.0403,0.0352,0.0305,0.0223,0.0088,0.0111,-0.0004,-0.008,-0.0086,-0.0152,-0.0214,-0.0249,-0.0231,-0.0176,-0.0176,-0.0175,-0.0175,0,0.0279,0.033,0.0385,0.0398,0.0441,0.0467,0.049,0.0497,0.0541,0.0536,0.0566,0.0479,0.0467,0.0317,0.0139,0.012,-0.0012,-0.006,-0.0211,-0.0216,-0.0233,-0.0239,-0.0167,-0.0167,-0.0167,-0.0167,-0.0166,0,0.0326,0.0369,0.0412,0.0445,0.0527,0.0529,0.0612,0.0622,0.0665,0.0743,0.0648,0.0681,0.0493,0.0388,0.0194,-0.0009,0.0021,-0.0193,-0.0234,-0.0203,-0.0206,-0.0197,-0.02,-0.017,-0.0169,-0.0168,-0.0168,0,0.0364,0.0387,0.046,0.0522,0.0553,0.061,0.0715,0.077,0.0801,0.0901,0.0917,0.0856,0.0724,0.0501,0.0278,0.0085,-0.0118,-0.0211,-0.0164,-0.0199,-0.0318,-0.0315,-0.0372,-0.0374,-0.0375,-0.0377,-0.0378,0,0.0383,0.0423,0.0527,0.0563,0.0593,0.0685,0.0758,0.0837,0.091,0.1009,0.1062,0.0987,0.093,0.0575,0.024,-0.0096,-0.0139,-0.0295,-0.0336,-0.0301,-0.0336,-0.0331,-0.0326,-0.0328,-0.0329,-0.0329,-0.033,0,0.0405,0.0443,0.0496,0.0598,0.0674,0.079,0.0899,0.1,0.111,0.1215,0.1295,0.1268,0.0951,0.0632,0.0184,-0.0049,-0.0237,-0.0319,-0.0281,-0.0281,-0.0267,-0.0299,-0.0294,-0.0334,-0.0334,-0.0334,-0.0333,-0.0333,0.0383,0.0429,0.0493,0.0607,0.071,0.0851,0.0983,0.1112,0.1287,0.1464,0.1424,0.1413,0.1055,0.0487,0.0103,-0.0285,-0.0284,-0.0424,-0.0419,-0.0415,-0.0395,-0.0385,-0.0472,-0.0472,-0.0472,-0.0473,-0.0473,0,0.0331,0.0385,0.0484,0.0622,0.0781,0.0833,0.1049,0.1197,0.1433,0.1565,0.164,0.1302,0.0942,0.0548,-0.0033,-0.0399,-0.0417,-0.0501,-0.0438,-0.0432,-0.0427,-0.0406,-0.0487,-0.0487,-0.0488,-0.0489,0,0,0.0259,0.0339,0.0441,0.0666,0.078,0.0995,0.1139,0.1367,0.1523,0.1657,0.1684,0.1583,0.1089,0.0667,0.0174,-0.0139,-0.0196,-0.0206,-0.0161,-0.0023,-0.0013,-0.0357,-0.0315,0,0,0,0,0]}],[{"header":{"parameterUnit":"m.s-1","parameterCategory":2,"la1":30.2991,"la2":30.254,"lo1":-89.0895,"lo2":-89.0444,"dy":0.0017,"dx":0.0017,"nx":28,"ny":28,"refTime":"2025-04-17T03:00:00:Z","depth":"4","parameterNumber":2,"parameterNumberName":"U-component_of_CURRENTS"},"data":[0,0,0,0,0,0,0,0,0,0,0,0,0,0,0,0,0,0,0,0,0,0,0,0,0,0,0,0,0,0,0,0,0,0,0,0,0,0,0,0,0,0,0,0,0,0,0,0,0,0,0,0,0,0,0,0,0,0,0.1544,0.1545,0,0.1644,0.1645,0.1646,0.1726,0.1727,0.1728,0.1729,0.1823,0.1824,0.1826,0,0,0,0,0,0,0,0,0,0,0,0,0,0.1431,0.1432,0.1544,0.1545,0.1547,0.1643,0.1645,0.1646,0.1725,0.1727,0.1728,0.1729,0.1822,0.1824,0.1826,0,0,0,0,0,0,0,0,0,0,0,0,0,0.1498,0.1432,0.1543,0.1599,0.1606,0.1643,0.1645,0.1646,0.1725,0.1727,0.1728,0.173,0.1822,0.1824,0.1826,0.1811,0,0,0.1833,0.1834,0,0,0,0,0,0,0,0,0.1494,0.1502,0.159,0.1596,0.1603,0.1675,0.164,0.1702,0.1725,0.1678,0.1729,0.173,0.1773,0.1779,0.1792,0.1816,0.182,0.1834,0.1835,0.1836,0.1837,0,0,0,0,0,0,0,0.1489,0.1498,0.1581,0.1591,0.1599,0.1623,0.1634,0.1652,0.1714,0.1682,0.1689,0.1702,0.1776,0.179,0.1795,0.1821,0.1834,0.1836,0.1837,0.1838,0.1957,0.1959,0,0,0,0,0,0,0.1479,0.1494,0.1578,0.1585,0.1553,0.1624,0.1636,0.1649,0.1714,0.1726,0.1701,0.1706,0.1785,0.1792,0.1799,0.189,0.1836,0.1838,0.184,0.1955,0.1957,0.1959,0,0,0,0,0,0,0.1476,0.1485,0.1574,0.1543,0.1556,0.1624,0.1638,0.165,0.17,0.1729,0.1741,0.1742,0.1786,0.1795,0.1854,0.189,0.1839,0.1842,0.1953,0.1956,0.1958,0.2004,0,0,0,0,0,0,0.1472,0.1484,0.1507,0.1542,0.1558,0.1618,0.1637,0.1651,0.1705,0.1713,0.1768,0.1776,0.1788,0.185,0.1856,0.1892,0.1843,0.1951,0.1954,0.1957,0.2,0.2008,0.2014,0,0,0,0,0,0.1468,0.1487,0.1508,0.1519,0.1582,0.1619,0.163,0.1681,0.1705,0.173,0.1776,0.1776,0.1875,0.1854,0.186,0.1898,0.1949,0.1953,0.1957,0.1997,0.2006,0.2014,0,0,0,0,0,0,0.1451,0.1498,0.1521,0.1556,0.1596,0.1634,0.1668,0.1696,0.1751,0.1773,0.1795,0.1807,0.1873,0.1878,0.1853,0.1943,0.1913,0.1919,0.1941,0.195,0.1957,0.1951,0.1845,0,0,0,0,0,0.1456,0.1487,0.1529,0.1561,0.1583,0.163,0.1659,0.1695,0.1739,0.1766,0.1807,0.185,0.1886,0.1914,0.1945,0.1989,0.2007,0.2019,0.2026,0.2031,0.2032,0.2095,0.2108,0.1972,0.1972,0.1972,0,0,0.146,0.149,0.151,0.156,0.1598,0.1632,0.1653,0.1707,0.1744,0.1765,0.1842,0.1878,0.1904,0.1962,0.1991,0.1975,0.2083,0.2036,0.2041,0.2039,0.21,0.2114,0.2125,0.1975,0.1974,0.1974,0,0,0.1468,0.1509,0.1536,0.157,0.1632,0.1659,0.168,0.1741,0.1783,0.1847,0.1877,0.1935,0.1992,0.2021,0.2038,0.2099,0.2118,0.2119,0.2151,0.2213,0.2224,0.2234,0.2285,0.2299,0.2123,0.2123,0.2123,0,0.1476,0.1506,0.155,0.1581,0.1613,0.1671,0.1703,0.1748,0.1826,0.1863,0.1881,0.1991,0.2015,0.2078,0.2107,0.2114,0.2155,0.2115,0.2221,0.2232,0.2241,0.2291,0.2306,0.2126,0.2125,0.2125,0.2125,0,0.1488,0.153,0.1549,0.1606,0.1647,0.1685,0.1746,0.1806,0.1863,0.1908,0.2001,0.2047,0.2111,0.2132,0.2139,0.2224,0.2233,0.2223,0.2197,0.2258,0.2306,0.2321,0.2129,0.2129,0.2128,0.2127,0,0,0.1457,0.154,0.155,0.1586,0.1663,0.1697,0.1767,0.1838,0.1901,0.198,0.206,0.2124,0.2168,0.219,0.2219,0.2273,0.2378,0.2286,0.2288,0.2331,0.2527,0.2357,0.2357,0.24,0.2402,0.2404,0.2536,0,0.1455,0.1506,0.1551,0.1616,0.1649,0.1725,0.1783,0.1865,0.1945,0.2043,0.2105,0.2197,0.2184,0.2245,0.2291,0.2375,0.242,0.2343,0.2465,0.2469,0.2305,0.2368,0.2413,0.2547,0.2551,0.2553,0.2555,0,0.1446,0.1483,0.1536,0.1628,0.1652,0.1703,0.1818,0.1887,0.2021,0.2093,0.2188,0.2252,0.236,0.2339,0.248,0.2444,0.2483,0.2526,0.2532,0.2363,0.2325,0.2473,0.2582,0.258,0.2578,0.2576,0.2575,0,0.1394,0.1475,0.1516,0.1546,0.1655,0.1707,0.1778,0.1906,0.199,0.2152,0.2238,0.235,0.2452,0.2516,0.259,0.2567,0.2737,0.271,0.2581,0.2571,0.2664,0.2652,0.2784,0.2784,0.2784,0.2783,0.2783,0,0.136,0.1401,0.1502,0.1529,0.1597,0.1692,0.1798,0.189,0.2048,0.2149,0.227,0.2362,0.251,0.261,0.264,0.2657,0.2774,0.2594,0.2593,0.2682,0.267,0.2676,0.2661,0.2788,0.2787,0.2786,0.2786,0,0.13,0.1365,0.1423,0.1534,0.158,0.1636,0.1808,0.1866,0.2047,0.2189,0.2254,0.2438,0.2565,0.2661,0.2798,0.2719,0.2754,0.2718,0.2822,0.2823,0.2537,0.2524,0.26,0.2595,0.2591,0.2587,0.2584,0,0.1256,0.1283,0.1412,0.1434,0.1489,0.1598,0.1649,0.1845,0.1917,0.2202,0.2237,0.2447,0.2538,0.2596,0.2702,0.2747,0.2702,0.2698,0.2587,0.2527,0.252,0.2513,0.2506,0.2578,0.2577,0.2576,0.2574,0,0.1156,0.1225,0.1265,0.1331,0.1386,0.1458,0.1564,0.1629,0.1851,0.2046,0.2185,0.228,0.2415,0.2505,0.2558,0.2574,0.2693,0.2653,0.2661,0.2557,0.2501,0.2496,0.2494,0.256,0.2562,0.2563,0.2564,0,0.1046,0.1068,0.1128,0.1183,0.1249,0.1274,0.1371,0.1467,0.1597,0.1921,0.197,0.2189,0.2394,0.2417,0.2465,0.2474,0.2431,0.2336,0.236,0.2377,0.2238,0.2131,0.2082,0,0,0,0,0,0.0906,0.0924,0.0959,0.1006,0.1077,0.1127,0.1271,0.1376,0.163,0.1668,0.1829,0.1945,0.2074,0.2187,0.2152,0.234,0.2412,0.2286,0.2306,0.248,0.2497,0.2351,0,0,0,0,0,0,0.0794,0.0825,0.0895,0.0851,0.0863,0.0919,0.101,0.1176,0.1228,0.1507,0.1583,0.1806,0.1944,0.2067,0.2107,0.214,0.2107,0.2436,0.243,0.247,0.2486,0.2499,0.2356,0,0,0,0,0]},{"header":{"parameterUnit":"m.s-1","parameterCategory":2,"la1":30.2991,"la2":30.254,"lo1":-89.0895,"lo2":-89.0444,"dy":0.0017,"dx":0.0017,"nx":28,"ny":28,"refTime":"2025-04-17T03:00:00:Z","depth":"4","parameterNumber":3,"parameterNumberName":"V-component_of_CURRENTS"},"data":[0,0,0,0,0,0,0,0,0,0,0,0,0,0,0,0,0,0,0,0,0,0,0,0,0,0,0,0,0,0,0,0,0,0,0,0,0,0,0,0,0,0,0,0,0,0,0,0,0,0,0,0,0,0,0,0,0,0,-0.0032,-0.0032,0,-0.0087,-0.0087,-0.0088,-0.0125,-0.0125,-0.0125,-0.0125,-0.0205,-0.0206,-0.0208,0,0,0,0,0,0,0,0,0,0,0,0,0,0.0017,0.0016,-0.0032,-0.0032,-0.0033,-0.0087,-0.0087,-0.0088,-0.0125,-0.0125,-0.0125,-0.0125,-0.0204,-0.0206,-0.0208,0,0,0,0,0,0,0,0,0,0,0,0,0,-0.0018,0.0016,-0.0032,-0.0057,-0.006,-0.0086,-0.0087,-0.0088,-0.0125,-0.0125,-0.0125,-0.0126,-0.0203,-0.0206,-0.0209,-0.0221,0,0,-0.0218,-0.0219,0,0,0,0,0,0,0,0,-0.0016,-0.002,-0.0053,-0.0055,-0.0059,-0.0099,-0.0099,-0.0134,-0.0125,-0.0101,-0.0125,-0.0126,-0.0171,-0.0176,-0.0187,-0.0224,-0.0228,-0.0218,-0.022,-0.0221,-0.0222,0,0,0,0,0,0,0,-0.0014,-0.0018,-0.0054,-0.0053,-0.0057,-0.0075,-0.008,-0.0106,-0.0134,-0.0103,-0.0106,-0.0111,-0.0173,-0.0184,-0.0189,-0.0229,-0.0218,-0.022,-0.0222,-0.0223,-0.029,-0.029,0,0,0,0,0,0,-0.0004,-0.0016,-0.0052,-0.0056,-0.0037,-0.0075,-0.0081,-0.0086,-0.0134,-0.0141,-0.011,-0.0112,-0.0179,-0.0185,-0.0192,-0.0204,-0.0221,-0.0224,-0.0225,-0.029,-0.029,-0.029,0,0,0,0,0,0,-0.0003,-0.0007,-0.005,-0.0036,-0.0043,-0.0075,-0.0081,-0.0087,-0.0099,-0.0139,-0.0147,-0.0117,-0.0179,-0.0188,-0.0212,-0.0207,-0.0225,-0.0227,-0.029,-0.029,-0.029,-0.0231,0,0,0,0,0,0,-0.0001,-0.0006,-0.0007,-0.0036,-0.0043,-0.0062,-0.0081,-0.0088,-0.0102,-0.0105,-0.0147,-0.0155,-0.018,-0.0208,-0.0215,-0.0212,-0.023,-0.029,-0.029,-0.029,-0.0233,-0.023,-0.0226,0,0,0,0,0,0.0001,0.0001,-0.0006,-0.0011,-0.0043,-0.0062,-0.0067,-0.0092,-0.0102,-0.0105,-0.0132,-0.0153,-0.0214,-0.021,-0.0219,-0.0216,-0.029,-0.029,-0.029,-0.0235,-0.023,-0.0226,0,0,0,0,0,0,0.0018,-0.0003,-0.0012,-0.0019,-0.0037,-0.0068,-0.0073,-0.0089,-0.0113,-0.0115,-0.0153,-0.0162,-0.0183,-0.0209,-0.0204,-0.0237,-0.0256,-0.0258,-0.0211,-0.0207,-0.0204,-0.0179,-0.0232,0,0,0,0,0,0.0024,0.0021,-0.0004,-0.0009,-0.0015,-0.0043,-0.0053,-0.0068,-0.0093,-0.0104,-0.0133,-0.0164,-0.019,-0.0205,-0.0233,-0.025,-0.0279,-0.0255,-0.0251,-0.0248,-0.0235,-0.0274,-0.0273,-0.029,-0.029,-0.029,0,0,0.0029,0.0018,0.0015,-0.0004,-0.0019,-0.0018,-0.005,-0.0061,-0.0059,-0.0109,-0.0117,-0.0153,-0.0192,-0.021,-0.0222,-0.0231,-0.0262,-0.0248,-0.0245,-0.0233,-0.0274,-0.0272,-0.0271,-0.029,-0.029,-0.029,0,0,0.0045,0.003,0.0036,0.0028,0.0012,-0.0003,-0.0003,-0.0031,-0.0042,-0.0058,-0.0091,-0.012,-0.0162,-0.0186,-0.0204,-0.0198,-0.0242,-0.0214,-0.0175,-0.0213,-0.0212,-0.0211,-0.0255,-0.0259,-0.0211,-0.0211,-0.0211,0,0.0053,0.006,0.0035,0.0043,0.0046,0.0009,0.0024,0.0007,-0.0025,-0.0028,-0.0052,-0.011,-0.0147,-0.0163,-0.0163,-0.0188,-0.0221,-0.0185,-0.0207,-0.0207,-0.0207,-0.0253,-0.0257,-0.0208,-0.0209,-0.0209,-0.0209,0,0.0077,0.0086,0.009,0.0094,0.0091,0.0095,0.0076,0.007,0.0049,0.0028,0.0004,-0.005,-0.0081,-0.0104,-0.0133,-0.015,-0.0178,-0.0197,-0.0213,-0.0201,-0.0251,-0.0257,-0.0204,-0.0205,-0.0206,-0.0207,0,0,0.0087,0.0106,0.0108,0.0129,0.0122,0.0125,0.0133,0.013,0.0138,0.0093,0.0095,0.0039,0.0004,-0.0019,-0.0065,-0.0102,-0.014,-0.0145,-0.0149,-0.0181,-0.0233,-0.0234,-0.0241,-0.0166,-0.0166,-0.0167,-0.0271,0,0.0116,0.0155,0.0153,0.0194,0.0214,0.02,0.0213,0.0205,0.0182,0.0171,0.0113,0.0091,0.0038,0.0021,-0.0023,-0.0109,-0.0151,-0.011,-0.0247,-0.0251,-0.0246,-0.0245,-0.0168,-0.0276,-0.0277,-0.0278,-0.0279,0,0.0141,0.0168,0.0216,0.026,0.0267,0.0285,0.0306,0.0314,0.0287,0.0271,0.0236,0.0182,0.0127,0.0076,-0.0054,-0.0027,-0.0119,-0.0192,-0.0198,-0.0218,-0.0262,-0.029,-0.029,-0.0289,-0.0288,-0.0287,-0.0287,0,0.0166,0.0213,0.0258,0.0271,0.0307,0.0331,0.0348,0.0342,0.036,0.0332,0.0328,0.0252,0.0212,0.0097,-0.0055,-0.0056,-0.0209,-0.0231,-0.032,-0.0322,-0.0316,-0.0315,-0.0321,-0.0321,-0.032,-0.032,-0.032,0,0.0196,0.0233,0.0277,0.0302,0.0362,0.0372,0.0423,0.0426,0.0435,0.0459,0.0382,0.037,0.0215,0.0105,-0.0034,-0.0193,-0.0196,-0.0308,-0.0343,-0.0291,-0.0287,-0.0321,-0.0319,-0.0324,-0.0323,-0.0322,-0.0322,0,0.0208,0.0238,0.0294,0.035,0.0375,0.0414,0.0484,0.0519,0.0516,0.0542,0.0538,0.0454,0.0318,0.0146,-0.005,-0.0159,-0.0316,-0.0376,-0.0311,-0.0342,-0.041,-0.0404,-0.0473,-0.0473,-0.0474,-0.0475,-0.0475,0,0.0213,0.0243,0.0326,0.0373,0.0402,0.0468,0.0521,0.0555,0.0594,0.0591,0.0605,0.0492,0.0411,0.0145,-0.0045,-0.0303,-0.0343,-0.0429,-0.0412,-0.0395,-0.0423,-0.0417,-0.0411,-0.0476,-0.0476,-0.0476,-0.0477,0,0.0223,0.0253,0.031,0.0412,0.048,0.0559,0.0633,0.0671,0.0709,0.0694,0.067,0.0535,0.0379,0.0167,-0.004,-0.0228,-0.0371,-0.0437,-0.0436,-0.0421,-0.04,-0.0426,-0.0419,-0.0479,-0.0479,-0.0478,-0.0478,0,0.0242,0.0281,0.0371,0.0462,0.0551,0.0647,0.0674,0.0729,0.0769,0.0759,0.0743,0.0576,0.0473,0.0203,0.0012,-0.0169,-0.0214,-0.0273,-0.0282,-0.0282,-0.0197,-0.0141,-0.0164,0,0,0,0,0,0.0278,0.0348,0.0422,0.0538,0.062,0.0681,0.076,0.0779,0.0799,0.0797,0.078,0.0638,0.0374,0.0253,0.0075,-0.0014,-0.0258,-0.0231,-0.0332,-0.0492,-0.0489,-0.0422,0,0,0,0,0,0,0.0324,0.0404,0.044,0.0586,0.0667,0.0775,0.0829,0.0835,0.0833,0.0814,0.0679,0.0592,0.0333,0.0483,0.0074,0.0015,-0.0074,-0.0364,-0.0368,-0.0493,-0.0491,-0.0489,-0.0419,0,0,0,0,0]}]]